EHI
0 0 0 0 0 0 0 0 0 0 0 0 0 0 0 0 0 0 0 0 0 0 0 0 0 0 0 0 0 0 0 0 0 0 0 0 0 0 0 0 0 0 0
0 0 0 0 0 0 0 0 0 0 0 0 0 0 0 0 0 0 0 0 0 0 0 0 0 0 0 0 0 0 0 0 0 0 0 0 0 0 0 0 0 0 0
0 0 0 0 0 0 0 0 0 0 0 0 0 0 0 0 0 0 0 0 0 0 0 0 0 0 0 0 0 0 0 0 0 0 0 0 0 0 0 0 0 0 0
0 0 0 0 0 0 0 0 0 0 0 0 0 0 0 0 0 0 0 0 0 0 0 0 0 0 0 0 0 0 0 0 0 0 0 0 0 0 0 0 0 0 0
0 0 0 0 0 0 0 0 0 0 0 0 0 0 0 0 0 0 0 0 0 0 0 0 0 0 0 0 0 0 0 0 0 0 0 0 0 0 0 0 0 0 0
0 0 0 0 0 0 0 0 0 0 0 0 0 0 0 0 0 0 0 0 0 0 0 0 0 0 0 0 0 0 0 0 0 0 0 0 0 0 0 0 0 0 0
0 0 0 0 0 0 0 0 0 0 0 0 0 0 0 0 0 0 0 0 0 0 0 0 0 0 0 0 0 0 0 0 0 0 0 0 0 0 0 0 0 0 0
0 0 0 0 0 0 0 0 0 0 0 0 0 0 0 0 0 0 0 0 0 0 0 0 0 0 0 0 0 0 0 0 0 0 0 0 0 0 0 0 0 0 0
0 0 0 0 0 0 0 0 0 0 0 0 0 0 0 0 0 0 0 0 0 0 0 0 0 0 0 0 0 0 0 0 0 0 0 0 0 0 0 0 0 0 0
0 0 0 0 0 0 0 0 0 0 0 0 0 0 0 0 0 0 0 0 0 0 0 0 0 0 0 0 0 0 0 0 0 0 0 0 0 0 0 0 0 0 0
0 0 0 0 0 0 0 0 0 0 0 0 0 0 0 0 0 0 0 0 0 0 0 0 0 0 0 0 0 0 0 0 0 0 0 0 0 0 0 0 0 0 0
0 0 0 0 0 0 0 0 0 0 0 0 0 0 0 0 0 0 0 0 0 0 0 0 0 0 0 0 0 0 0 0 0 0 0 0 0 0 0 0 0 0 0
0 0 0 0 0 0 0 0 0 0 0 0 0 0 0 0 0 0 0 0 0 0 0 0 0 0 0 0 0 0 0 0 0 0 0 0 0 0 0 0 0 0 0
0 0 0 0 0 0 0 0 0 0 0 0 0 0 0 0 0 0 0 0 0 0 0 0 0 0 0 0 0 0 0 0 0 0 0 0 0 0 0 0 0 0 0
0 0 0 0 0 0 0 0 0 0 0 0 0 0 0 0 0 0 0 0 0 0 0 0 0 0 0 0 0 0 0 0 0 0 0 0 0 0 0 0 0 0 0
0 0 0 0 0 0 0 0 0 0 0 0 0 0 0 0 0 0 0 0 0 0 0 0 0 0 0 0 0 0 0 0 0 0 0 0 0 0 0 0 0 0 0
0 0 0 0 0 0 0 0 0 0 0 0 0 0 0 0 0 0 0 0 0 0 0 0 0 0 0 0 0 0 0 0 0 0 0 0 0 0 0 0 0 0 0
0 0 0 0 0 0 0 0 0 0 0 0 0 0 0 0 0 0 0 0 0 0 0 0 0 0 0 0 0 0 0 0 0 0 0 0 0 0 0 0 0 0 0
0 0 0 0 0 0 0 0 0 0 0 0 0 0 0 0 0 0 0 0 0 0 0 0 0 0 0 0 0 0 0 0 0 0 0 0 0 0 0 0 0 0 0
0 0 0 0 0 0 0 0 0 0 0 0 0 0 0 0 0 0 0 0 0 0 0 0 0 0 0 0 0 0 0 0 0 0 0 0 0 0 0 0 0 0 0
0 0 0 0 0 0 0 0 0 0 0 0 0 0 0 0 0 0 0 0 0 0 0 0 0 0 0 0 0 0 0 0 0 0 0 0 0 0 0 0 0 0 0
0 0 0 0 0 0 0 0 0 0 0 0 0 0 0 0 0 0 0 0 0 0 0 0 0 0 0 0 0 0 0 0 0 0 0 0 0 0 0 0 0 0 0
0 0 0 0 0 0 0 0 0 0 0 0 0 0 0 0 0 0 0 0 0 0 0 0 0 0 0 0 0 0 0 0 0 0 0 0 0 0 0 0 0 0 0
0 0 0 0 0 0 0 0 0 0 0 0 0 0 0 0 0 0 0 0 0 0 0 0 0 0 0 0 0 0 0 0 0 0 0 0 0 0 0 0 0 0 0
0 0 0 0 0 0 0 0 0 0 0 0 0 0 0 0 0 0 0 0 0 0 0 0 0 0 0 0 0 0 0 0 0 0 0 0 0 0 0 0 0 0 0
0 0 0 0 0 0 0 0 0 0 0 0 0 0 0 0 0 0 0 0 0 0 0 0 0 0 0 0 0 0 0 0 0 0 0 0 0 0 0 0 0 0 0
Wind_Speed
3 2 2 1 0 1 0 0 1 1 1 2 2 2 2 2 2 2 1 1 2 2 1 1 1 0 0 0 0 0 0 1 1 1 1 1 2 2 1 1 2 2 4
3 3 3 2 2 1 0 0 1 1 1 2 2 2 3 3 3 2 2 2 2 2 2 1 0 0 1 0 0 0 0 1 1 1 1 1 2 2 1 2 2 2 2
4 3 3 3 2 1 0 0 1 1 1 1 1 2 2 2 2 2 2 1 1 1 1 1 1 2 1 1 1 0 0 0 1 1 1 1 1 1 1 2 3 2 3
5 4 3 3 3 2 1 0 1 2 2 2 2 2 2 2 3 3 2 2 2 2 2 2 3 3 2 2 1 1 1 0 0 0 1 1 1 2 1 1 2 2 2
7 5 4 3 3 3 2 1 0 1 2 2 2 2 2 2 3 4 4 3 2 2 2 2 3 3 4 2 2 2 2 1 1 1 1 1 1 1 1 1 2 2 3
7 6 5 3 3 3 2 2 1 1 1 1 1 1 2 2 4 5 3 4 3 2 2 1 1 2 2 1 1 1 1 1 1 1 1 1 2 1 1 1 1 2 2
7 7 6 5 4 3 3 2 2 2 1 1 1 1 0 1 2 3 3 2 3 2 2 1 1 2 2 1 1 2 2 3 4 2 1 1 1 1 1 2 2 2 3
8 7 7 6 5 4 3 3 3 2 2 2 2 1 1 1 1 1 3 2 2 2 1 1 1 2 3 3 2 2 1 1 2 2 1 1 1 1 1 1 2 3 3
8 8 8 7 6 5 5 4 3 2 2 2 2 2 2 1 2 1 1 2 2 1 0 2 2 2 4 5 2 2 2 2 2 0 2 2 3 3 2 2 2 2 3
8 8 8 7 7 6 5 4 3 3 3 2 2 2 2 2 1 1 1 2 2 1 1 2 4 3 4 5 3 3 3 3 4 3 2 3 3 3 3 2 1 1 2
9 8 7 7 7 6 5 3 3 3 3 2 2 2 2 2 3 2 1 1 2 2 1 1 2 4 4 4 3 2 2 4 4 3 2 2 1 1 1 1 1 1 1
9 8 7 7 6 6 5 4 3 3 3 3 3 3 2 2 3 3 2 0 2 2 1 2 2 4 4 3 2 3 5 5 3 2 2 2 2 2 2 2 3 2 2
9 8 7 7 6 5 5 4 3 3 2 2 2 2 2 2 3 4 1 1 1 1 1 3 3 3 2 1 2 4 4 3 3 3 3 3 3 3 4 4 5 4 4
10 9 8 7 6 5 4 3 3 2 2 1 1 1 2 3 2 1 0 0 1 1 0 1 2 2 2 2 3 3 2 2 3 3 3 3 4 4 4 3 3 4 3
10 9 8 7 7 6 5 3 3 3 2 2 1 2 2 3 2 3 2 2 1 1 1 1 2 2 3 3 3 3 3 4 4 4 4 4 4 4 4 4 4 4 3
10 9 7 6 6 7 7 5 8 6 8 8 7 6 5 6 6 6 6 5 4 4 3 3 3 3 3 3 3 3 4 4 3 3 3 3 3 4 4 3 3 3 3
9 9 7 7 8 8 8 8 6 5 8 8 8 8 8 7 6 5 5 5 4 5 4 3 3 3 3 3 3 3 3 3 3 3 3 3 3 3 4 4 4 4 4
9 10 9 7 8 8 8 8 7 7 6 3 4 6 7 6 5 4 3 3 3 4 3 3 3 3 3 3 3 2 2 3 3 3 3 3 4 4 4 4 4 4 4
8 7 8 7 7 7 7 7 7 8 7 6 5 3 5 5 4 3 2 2 3 3 3 3 3 3 3 3 2 2 2 2 3 3 3 4 4 3 3 4 4 6 5
7 11 10 8 7 7 7 7 7 7 8 7 7 6 5 4 3 3 2 2 3 3 3 3 3 3 3 3 2 2 2 3 3 3 3 3 4 3 4 4 4 4 4
6 8 12 8 7 7 7 7 7 7 7 6 6 7 8 5 4 5 4 3 3 4 3 3 3 3 3 2 2 3 3 3 3 3 3 3 3 3 3 3 4 4 5
7 7 7 7 7 7 7 6 6 7 7 8 6 6 7 4 4 4 4 4 4 4 4 3 3 3 3 3 3 3 3 4 3 3 3 3 3 3 3 3 4 4 5
7 8 7 6 6 9 8 7 7 7 7 8 8 6 5 4 4 5 5 4 4 4 4 4 4 3 3 3 3 4 4 4 3 3 3 3 3 4 3 4 5 5 5
7 8 8 7 7 7 7 7 7 7 8 8 8 7 6 5 5 6 5 5 5 4 4 3 3 4 5 4 4 5 5 4 3 3 4 4 4 4 4 4 5 6 6
7 8 8 8 8 8 7 8 8 8 8 8 7 7 6 6 6 6 5 5 5 5 5 4 3 4 5 6 6 6 5 4 3 2 3 3 4 4 5 5 5 6 7
6 7 7 7 7 7 7 8 8 8 8 7 7 7 7 6 6 6 6 5 5 4 4 4 5 5 5 6 7 6 4 2 2 4 4 4 5 4 5 5 7 7 8
Wind_Direction
170 179 140 150 182 239 205 56 308 321 351 338 342 358 21 31 40 52 18 29 26 13 5 89 98 87 107 52 71 122 142 132 224 293 315 318 332 316 289 255 225 207 200
168 169 165 168 174 238 214 144 301 325 337 339 358 18 30 39 35 33 14 51 59 23 3 32 67 114 118 121 82 255 194 181 163 261 290 300 296 294 290 273 260 239 219
163 176 184 173 169 194 214 235 301 323 327 323 9 29 30 33 36 35 33 35 57 29 360 19 28 52 43 52 70 47 8 139 189 215 267 282 287 287 297 298 284 271 253
167 182 193 183 167 176 173 207 311 328 339 350 22 32 31 30 24 18 15 15 31 42 29 42 51 50 36 10 7 360 359 358 277 232 255 279 287 297 308 302 303 288 269
169 180 190 189 169 166 162 170 223 332 342 353 11 16 23 33 29 27 5 357 9 29 34 55 77 88 72 51 28 2 1 355 334 304 274 294 294 317 306 290 292 292 279
174 178 176 184 168 166 174 179 193 205 306 346 1 9 21 34 48 38 19 343 342 5 19 48 128 131 121 121 89 3 294 260 266 283 273 271 285 291 295 301 303 318 299
177 175 173 181 176 175 185 181 193 193 215 265 282 293 46 76 42 12 355 331 323 345 356 1 19 63 66 22 319 278 274 255 237 222 255 278 283 287 310 318 308 299 274
179 174 172 175 177 177 184 193 203 205 195 204 226 227 199 177 214 308 317 297 292 303 332 352 43 47 34 25 358 346 344 334 251 218 203 270 303 330 339 285 278 290 284
179 176 174 175 178 180 187 194 197 211 217 204 209 221 207 208 229 252 306 284 278 282 7 44 52 73 42 29 15 354 5 354 347 314 228 250 272 285 292 320 315 312 298
178 178 177 173 171 179 188 190 187 197 211 213 217 213 203 184 185 198 259 280 293 291 111 88 64 65 59 42 26 16 12 350 348 339 311 282 266 260 255 234 258 297 306
170 171 168 163 168 176 181 182 193 198 197 204 219 218 195 155 140 128 107 344 318 332 30 71 60 72 68 49 46 34 349 330 328 326 322 314 313 321 286 272 265 223 265
156 160 164 166 175 175 169 183 196 186 193 213 219 217 170 135 125 128 113 10 325 352 20 42 59 75 66 54 40 0 350 349 333 336 350 360 3 359 353 344 327 305 260
155 163 168 169 170 161 163 176 186 186 194 211 197 184 151 121 107 100 88 340 334 98 72 73 90 80 46 54 1 357 5 11 7 14 14 5 360 1 1 350 342 341 338
163 168 171 174 167 158 154 161 161 168 181 194 171 145 125 103 76 46 19 22 96 123 156 127 111 74 42 18 35 32 32 37 37 30 11 1 2 9 8 359 353 348 348
172 174 176 172 160 149 122 84 110 83 105 127 105 88 96 102 76 67 67 58 53 62 51 76 71 63 50 37 38 40 35 34 33 23 18 11 8 8 4 3 3 1 4
181 179 173 164 154 145 133 107 64 87 89 86 90 102 86 100 110 91 80 72 65 62 75 80 72 68 64 54 47 39 37 31 25 24 23 18 9 2 359 1 4 8 2
184 175 167 164 161 158 154 150 141 95 76 80 92 104 114 119 112 104 94 76 63 75 83 83 80 75 69 62 52 48 39 25 19 26 26 17 9 5 4 2 5 5 355
187 177 167 164 162 164 163 161 157 157 151 128 105 124 132 135 134 132 124 102 80 79 86 90 86 81 76 71 58 44 40 31 25 25 24 18 12 9 8 2 0 359 343
184 172 165 161 161 163 161 160 160 160 151 145 142 147 160 152 143 143 132 120 112 106 99 90 85 82 77 71 62 43 42 43 35 31 25 18 12 10 6 358 352 351 351
182 173 162 159 162 161 161 162 160 155 152 155 159 159 165 167 159 151 139 119 111 110 109 105 94 86 79 70 59 44 41 46 42 37 26 18 11 8 1 357 354 350 346
169 167 165 163 165 165 163 163 159 155 155 153 149 153 166 167 151 140 132 120 113 109 103 102 99 89 80 69 55 44 46 50 48 35 23 14 9 1 352 348 345 343 336
169 165 169 168 163 161 161 158 154 153 150 141 138 147 152 145 137 133 129 123 115 109 105 100 96 93 87 80 67 55 54 51 41 28 14 4 357 344 339 340 339 333 329
169 165 168 166 160 158 159 157 155 153 147 143 146 150 154 150 141 135 129 122 114 108 103 101 102 95 81 75 71 71 71 59 35 18 5 354 343 334 332 330 327 326 325
172 168 170 167 161 162 163 158 154 150 146 147 151 153 155 148 141 136 132 127 122 117 113 108 108 106 98 89 85 82 78 64 32 13 0 339 324 320 322 322 319 318 316
176 172 171 167 163 163 162 155 152 149 149 150 151 150 147 142 139 135 132 128 125 123 122 117 112 103 95 95 101 105 104 81 51 354 325 310 307 309 309 309 307 307 304
175 171 166 160 159 160 159 155 153 150 149 148 147 145 144 141 138 136 133 131 130 129 125 119 115 111 105 104 110 118 115 82 354 323 305 289 289 290 297 296 299 299 298